FW6365 Weather Reports


Display with metric or nautical units.
time (UTC)temp
F
wind
direction
speed
MPH
gust
MPH
rain 1hr
in
rain 24hr
in
rain mn
in
humidity
%
barometer
mb
20260509201028 67 171 2.0 7.0 0.00 0.00 0.00 66 1020.2
20260509200526 66 25 3.0 8.0 0.00 0.00 0.00 68 1020.2
20260509200041 66 12 3.0 8.0 0.00 0.00 0.00 66 1020.4
20260509195526 66 302 4.0 7.0 0.00 0.00 0.00 66 1020.4
20260509195026 66 288 2.0 8.0 0.00 0.00 0.00 66 1020.4
20260509194543 66 0 2.0 8.0 0.00 0.00 0.00 68 1020.4
20260509194026 66 40 4.0 8.0 0.00 0.00 0.00 68 1020.5
20260509193530 66 58 2.0 9.0 0.00 0.00 0.00 68 1020.4
20260509193045 66 219 0.0 9.0 0.00 0.00 0.00 70 1020.5
20260509192527 65 319 5.0 9.0 0.00 0.00 0.00 68 1020.6
20260509192027 65 307 1.0 8.0 0.00 0.00 0.00 67 1020.8
20260509191542 65 321 4.0 8.0 0.00 0.00 0.00 67 1020.8
20260509191030 65 321 4.0 11.0 0.00 0.00 0.00 69 1020.9
20260509190526 65 304 2.0 11.0 0.00 0.00 0.00 68 1020.9
20260509190047 65 26 5.0 11.0 0.00 0.00 0.00 68 1020.9
20260509185526 65 129 1.0 11.0 0.00 0.00 0.00 68 1020.9
20260509185026 64 22 4.0 11.0 0.00 0.00 0.00 70 1020.9
20260509184540 64 298 4.0 8.0 0.00 0.00 0.00 70 1021.0
20260509184027 65 331 2.0 6.0 0.00 0.00 0.00 70 1021.0
20260509183531 65 284 2.0 5.0 0.00 0.00 0.00 69 1021.0
20260509183041 64 89 1.0 6.0 0.00 0.00 0.00 72 1021.0
20260509182526 64 103 2.0 6.0 0.00 0.00 0.00 71 1021.1
20260509182026 64 306 1.0 7.0 0.00 0.00 0.00 72 1021.2
20260509181540 64 321 1.0 7.0 0.00 0.00 0.00 73 1021.0
20260509181027 64 300 0.0 7.0 0.00 0.00 0.00 74 1021.1
20260509180527 63 49 2.0 7.0 0.00 0.00 0.00 71 1021.3
20260509180040 63 313 0.0 5.0 0.00 0.00 0.00 74 1021.2
20260509175526 63 26 2.0 5.0 0.00 0.00 0.00 74 1021.1
20260509175026 62 89 2.0 10.0 0.00 0.00 0.00 75 1021.2
20260509174541 62 312 2.0 10.0 0.00 0.00 0.00 75 1021.3
20260509174030 61 15 4.0 9.0 0.00 0.00 0.00 77 1021.2
20260509173525 61 319 4.0 7.0 0.00 0.00 0.00 76 1021.4
20260509173041 60 32 3.0 7.0 0.00 0.00 0.00 78 1021.3
20260509172529 60 352 3.0 8.0 0.00 0.00 0.00 78 1021.5
20260509172025 60 322 4.0 8.0 0.00 0.00 0.00 80 1021.5
20260509171541 60 340 4.0 13.0 0.00 0.00 0.00 79 1021.5
20260509171026 60 315 3.0 13.0 0.00 0.00 0.00 80 1021.6
20260509170526 60 63 5.0 13.0 0.00 0.00 0.00 81 1021.7
20260509170041 59 194 1.0 5.0 0.00 0.00 0.00 82 1021.7
20260509165527 59 310 2.0 9.0 0.00 0.00 0.00 81 1021.7
20260509165026 58 38 4.0 9.0 0.00 0.00 0.00 82 1021.7
20260509164540 58 336 3.0 5.0 0.00 0.00 0.00 84 1021.7
20260509164027 58 318 2.0 7.0 0.00 0.00 0.00 83 1021.7
20260509163526 57 19 2.0 7.0 0.00 0.00 0.00 86 1021.8
20260509163050 57 306 4.0 7.0 0.00 0.00 0.00 85 1021.8
20260509162526 57 311 2.0 8.0 0.00 0.00 0.00 87 1021.9
20260509162026 56 278 2.0 8.0 0.00 0.00 0.00 88 1022.0
20260509161542 55 321 2.0 4.0 0.00 0.00 0.00 88 1022.1
20260509161031 55 317 1.0 5.0 0.00 0.00 0.00 89 1022.0
20260509160526 55 11 2.0 5.0 0.00 0.00 0.00 89 1022.1
20260509160041 55 23 1.0 5.0 0.00 0.00 0.00 90 1022.1
20260509155525 54 0 1.0 5.0 0.00 0.00 0.00 92 1022.1
20260509155029 54 352 2.0 5.0 0.00 0.00 0.00 92 1022.3
20260509154542 53 302 2.0 6.0 0.00 0.00 0.00 93 1022.4
20260509154026 53 299 2.0 7.0 0.00 0.00 0.00 94 1022.3
20260509153525 53 12 1.0 8.0 0.00 0.00 0.00 96 1022.4
20260509153038 52 338 3.0 8.0 0.00 0.00 0.00 96 1022.4
20260509152526 52 336 1.0 5.0 0.00 0.00 0.00 97 1022.4
20260509152027 51 34 2.0 5.0 0.00 0.00 0.00 97 1022.6
20260509151541 50 304 0.0 2.0 0.00 0.00 0.00 98 1022.7
20260509151026 50 284 1.0 2.0 0.00 0.00 0.00 98 1022.6
20260509150529 49 313 0.0 3.0 0.00 0.00 0.00 98 1022.8
20260509150049 49 313 1.0 3.0 0.00 0.00 0.00 97 1022.8
20260509145526 48 325 1.0 2.0 0.00 0.00 0.00 97 1022.7
20260509145026 48 0 0.0 0.0 0.00 0.00 0.00 98 1022.7
20260509144544 47 0 0.0 0.0 0.00 0.00 0.00 98 1022.7
20260509144026 47 0 0.0 0.0 0.00 0.00 0.00 97 1022.7
20260509143527 46 0 0.0 0.0 0.00 0.00 0.00 97 1022.8
20260509143045 46 0 0.0 0.0 0.00 0.00 0.00 97 1022.8
20260509142526 46 0 0.0 0.0 0.00 0.00 0.00 97 1022.7
20260509142026 45 299 0.0 0.0 0.00 0.00 0.00 97 1022.6
20260509141544 45 0 0.0 0.0 0.00 0.00 0.00 97 1022.7
20260509141026 45 299 0.0 0.0 0.00 0.00 0.00 98 1022.7
20260509140525 45 0 0.0 0.0 0.00 0.00 0.00 98 1022.6
20260509140051 43 0 0.0 2.0 0.00 0.00 0.00 98 1022.6
20260509135530 43 299 0.0 2.0 0.00 0.00 0.00 98 1022.6
20260509135026 42 299 0.0 2.0 0.00 0.00 0.00 97 1022.6
20260509134549 42 0 0.0 1.0 0.00 0.00 0.00 97 1022.4
20260509134026 42 35 0.0 1.0 0.00 0.00 0.00 97 1022.4
20260509133526 41 35 0.0 0.0 0.00 0.00 0.00 97 1022.4
20260509133053 41 0 0.0 0.0 0.00 0.00 0.00 97 1022.4
20260509132527 41 0 0.0 0.0 0.00 0.00 0.00 97 1022.3
20260509132026 41 0 0.0 0.0 0.00 0.00 0.00 96 1022.5
20260509131542 42 0 0.0 1.0 0.00 0.00 0.00 97 1022.3
20260509131026 42 0 0.0 1.0 0.00 0.00 0.00 97 1022.4
20260509130526 42 0 0.0 0.0 0.00 0.00 0.00 97 1022.5
20260509130046 42 0 0.0 0.0 0.00 0.00 0.00 97 1022.5
20260509125525 42 0 0.0 0.0 0.00 0.00 0.00 97 1022.6
20260509125025 42 0 0.0 0.0 0.00 0.00 0.00 97 1022.6
20260509124543 43 0 0.0 0.0 0.00 0.00 0.00 96 1022.7
20260509124026 43 0 0.0 1.0 0.00 0.00 0.00 97 1022.6
20260509123526 43 0 0.0 1.0 0.00 0.00 0.00 97 1022.5
20260509123041 43 0 0.0 1.0 0.00 0.00 0.00 97 1022.7
20260509122526 43 0 0.0 1.0 0.00 0.00 0.00 97 1022.6
20260509122025 43 0 0.0 1.0 0.00 0.00 0.00 97 1022.6
20260509121542 44 34 0.0 1.0 0.00 0.00 0.00 97 1022.6
20260509121025 44 0 0.0 1.0 0.00 0.00 0.00 97 1022.7
20260509120526 44 0 0.0 1.0 0.00 0.00 0.00 97 1022.7
20260509120044 44 0 0.0 1.0 0.00 0.00 0.00 97 1022.7
20260509115526 44 0 0.0 0.0 0.00 0.00 0.00 97 1022.7
20260509115026 44 0 0.0 0.0 0.00 0.00 0.00 97 1022.8
20260509114550 44 0 0.0 0.0 0.00 0.00 0.00 97 1022.8
20260509114030 44 0 0.0 0.0 0.00 0.00 0.00 97 1022.9
20260509113526 44 0 0.0 1.0 0.00 0.00 0.00 97 1022.9
20260509113044 44 0 0.0 1.0 0.00 0.00 0.00 97 1022.9
20260509112525 44 36 0.0 1.0 0.00 0.00 0.00 97 1023.0
20260509112025 44 311 0.0 1.0 0.00 0.00 0.00 97 1023.0
20260509111539 44 311 0.0 1.0 0.00 0.00 0.00 97 1023.2
20260509111025 44 0 0.0 0.0 0.00 0.00 0.00 97 1023.2
20260509110525 44 0 0.0 0.0 0.00 0.00 0.00 97 1023.1
20260509110041 44 0 0.0 0.0 0.00 0.00 0.00 97 1023.2
20260509105531 44 0 0.0 0.0 0.00 0.00 0.00 97 1023.2
20260509105026 44 0 0.0 1.0 0.00 0.00 0.00 97 1023.1
20260509104545 44 0 0.0 1.0 0.00 0.00 0.00 97 1023.2
20260509104024 44 312 0.0 0.0 0.00 0.00 0.00 97 1023.1
20260509103526 44 312 0.0 0.0 0.00 0.00 0.00 97 1023.1
20260509103042 44 0 0.0 0.0 0.00 0.00 0.00 97 1023.2
20260509102527 44 0 0.0 0.0 0.00 0.00 0.00 97 1023.2
20260509102026 43 312 0.0 0.0 0.00 0.00 0.00 97 1023.2
20260509101541 43 0 0.0 0.0 0.00 0.00 0.00 97 1023.2
20260509101025 43 0 0.0 0.0 0.00 0.00 0.00 97 1023.2
20260509100525 43 0 0.0 0.0 0.00 0.00 0.00 97 1023.3
20260509100041 43 0 0.0 0.0 0.00 0.00 0.00 97 1023.3
20260509095526 42 312 0.0 0.0 0.00 0.00 0.00 97 1023.3
20260509095026 42 0 0.0 0.0 0.00 0.00 0.00 96 1023.4
20260509094541 42 0 0.0 0.0 0.00 0.00 0.00 96 1023.4
20260509094025 42 0 0.0 0.0 0.00 0.00 0.00 96 1023.4
20260509093525 42 0 0.0 0.0 0.00 0.00 0.00 96 1023.4
20260509093042 42 0 0.0 0.0 0.00 0.00 0.00 96 1023.5
20260509092526 42 0 0.0 0.0 0.00 0.00 0.00 96 1023.5
20260509092025 42 0 0.0 0.0 0.00 0.00 0.00 96 1023.5
20260509091538 42 0 0.0 0.0 0.00 0.00 0.00 96 1023.5
20260509091025 42 0 0.0 0.0 0.00 0.00 0.00 95 1023.5
20260509090525 43 0 0.0 0.0 0.00 0.00 0.00 95 1023.5
20260509090044 43 0 0.0 0.0 0.00 0.00 0.00 95 1023.6
20260509085525 43 0 0.0 1.0 0.00 0.00 0.00 95 1023.6
20260509085026 44 0 0.0 1.0 0.00 0.00 0.00 96 1023.7
20260509084547 44 311 0.0 1.0 0.00 0.00 0.00 96 1023.8
20260509084025 44 311 0.0 1.0 0.00 0.00 0.00 95 1023.8
20260509083529 44 311 0.0 0.0 0.00 0.00 0.00 96 1023.8
20260509083040 44 0 0.0 0.0 0.00 0.00 0.00 95 1023.8
20260509082525 45 0 0.0 0.0 0.00 0.00 0.00 95 1023.8
20260509082025 45 0 0.0 0.0 0.00 0.00 0.00 95 1023.8
20260509081540 45 0 0.0 0.0 0.00 0.00 0.00 95 1023.8
20260509081026 45 0 0.0 2.0 0.00 0.00 0.00 95 1023.8
20260509080525 45 0 0.0 2.0 0.00 0.00 0.00 95 1023.8
20260509080055 45 0 0.0 1.0 0.00 0.00 0.00 95 1023.7
20260509075529 45 0 0.0 1.0 0.00 0.00 0.00 95 1023.7
20260509075028 46 111 0.0 1.0 0.00 0.00 0.00 95 1023.7
20260509074543 45 114 0.0 1.0 0.00 0.00 0.00 95 1023.7
20260509074025 45 0 0.0 0.0 0.00 0.00 0.00 94 1023.6
20260509073526 46 0 0.0 0.0 0.00 0.00 0.00 94 1023.6
20260509073133 46 0 0.0 0.0 0.00 0.00 0.00 94 1023.7
20260509072526 47 0 0.0 0.0 0.00 0.00 0.00 94 1023.7
20260509072026 47 0 0.0 0.0 0.00 0.00 0.00 94 1023.7
20260509071542 47 0 0.0 1.0 0.00 0.00 0.00 93 1023.6
20260509071026 47 0 0.0 1.0 0.00 0.00 0.00 93 1023.6
20260509070526 48 0 0.0 1.0 0.00 0.00 0.00 93 1023.6
20260509070044 48 0 0.0 1.0 0.00 0.00 0.00 94 1023.6
20260509065530 48 0 0.0 1.0 0.00 0.00 0.00 93 1023.6
20260509065025 48 0 0.0 1.0 0.00 0.00 0.00 93 1023.5
20260509064544 48 118 0.0 1.0 0.00 0.00 0.00 92 1023.5
20260509064026 49 143 0.0 1.0 0.00 0.00 0.00 92 1023.6
20260509063528 49 143 0.0 1.0 0.00 0.00 0.00 91 1023.5
20260509063039 50 143 0.0 1.0 0.00 0.00 0.00 91 1023.6
20260509062525 50 0 0.0 0.0 0.00 0.00 0.00 91 1023.5
20260509062028 50 0 0.0 1.0 0.00 0.00 0.00 90 1023.5
20260509061553 50 0 0.0 1.0 0.00 0.00 0.00 91 1023.5
20260509061025 51 133 0.0 1.0 0.00 0.00 0.00 90 1023.5
20260509060526 51 155 0.0 1.0 0.00 0.00 0.00 90 1023.4
20260509060044 51 155 0.0 2.0 0.00 0.00 0.00 90 1023.4
20260509055525 51 157 1.0 2.0 0.00 0.00 0.00 90 1023.4
20260509055029 51 165 1.0 2.0 0.00 0.00 0.00 89 1023.4
20260509054544 52 165 1.0 3.0 0.00 0.00 0.00 89 1023.4
20260509054026 52 142 2.0 3.0 0.00 0.00 0.00 89 1023.4
20260509053526 52 142 2.0 4.0 0.00 0.00 0.00 89 1023.4
20260509053045 52 156 2.0 4.0 0.00 0.00 0.00 88 1023.4
20260509052526 52 168 2.0 4.0 0.00 0.00 0.00 88 1023.4
20260509052025 53 184 2.0 4.0 0.00 0.00 0.00 87 1023.4
20260509051540 53 165 2.0 4.0 0.00 0.00 0.00 86 1023.4
20260509051025 53 157 2.0 6.0 0.00 0.00 0.00 86 1023.4
20260509050525 54 233 2.0 6.0 0.00 0.00 0.00 86 1023.2
20260509050040 54 211 3.0 7.0 0.00 0.00 0.00 86 1023.3
20260509045528 54 203 4.0 7.0 0.00 0.00 0.00 86 1023.2
20260509045028 54 212 2.0 6.0 0.00 0.00 0.00 86 1023.3
20260509044538 54 218 3.0 6.0 0.00 0.00 0.00 86 1023.2
20260509044024 53 213 3.0 6.0 0.00 0.00 0.00 86 1023.2
20260509043528 54 205 3.0 5.0 0.00 0.00 0.00 86 1023.1
20260509043052 54 161 1.0 4.0 0.00 0.00 0.00 85 1023.0
20260509042525 54 187 1.0 3.0 0.00 0.00 0.00 85 1023.0
20260509042025 54 168 2.0 8.0 0.00 0.00 0.00 84 1023.1
20260509041540 54 268 0.0 8.0 0.00 0.00 0.00 84 1023.0
20260509041024 55 242 4.0 8.0 0.00 0.00 0.00 84 1022.9
20260509040524 55 257 2.0 6.0 0.00 0.00 0.00 84 1022.9
20260509040045 55 276 2.0 5.0 0.00 0.00 0.00 84 1023.0
20260509035526 55 236 2.0 5.0 0.00 0.00 0.00 83 1023.0
20260509035026 55 224 2.0 4.0 0.00 0.00 0.00 83 1022.9
20260509034540 55 234 1.0 4.0 0.00 0.00 0.00 82 1022.9
20260509034025 55 215 1.0 7.0 0.00 0.00 0.00 81 1022.9
20260509033525 56 245 2.0 7.0 0.00 0.00 0.00 81 1022.9
20260509033040 56 248 2.0 6.0 0.00 0.00 0.00 80 1022.8
20260509032527 56 208 1.0 5.0 0.00 0.00 0.00 80 1022.8
20260509032026 56 259 2.0 6.0 0.00 0.00 0.00 79 1022.8
20260509031546 56 254 1.0 8.0 0.00 0.00 0.00 79 1022.8
20260509031025 57 333 1.0 8.0 0.00 0.00 0.00 78 1022.7
20260509030528 57 271 4.0 9.0 0.00 0.00 0.00 77 1022.8
20260509030044 58 250 3.0 9.0 0.00 0.00 0.00 76 1022.7
20260509025524 59 222 0.0 5.0 0.00 0.00 0.00 75 1022.7
20260509025025 58 275 2.0 6.0 0.00 0.00 0.00 75 1022.7
20260509024541 59 237 3.0 6.0 0.00 0.00 0.00 74 1022.6
20260509024025 59 273 1.0 6.0 0.00 0.00 0.00 74 1022.6
20260509023525 59 292 2.0 9.0 0.00 0.00 0.00 74 1022.5
20260509023042 59 288 1.0 9.0 0.00 0.00 0.00 74 1022.5
20260509022525 59 292 3.0 9.0 0.00 0.00 0.00 73 1022.5
20260509022025 59 255 4.0 9.0 0.00 0.00 0.00 72 1022.3
20260509021540 60 219 2.0 7.0 0.00 0.00 0.00 72 1022.3
20260509021027 60 198 2.0 7.0 0.00 0.00 0.00 72 1022.3
20260509020526 60 264 3.0 10.0 0.00 0.00 0.00 72 1022.4
20260509020047 60 296 4.0 10.0 0.00 0.00 0.00 73 1022.4
20260509015526 60 236 4.0 7.0 0.00 0.00 0.00 72 1022.4
20260509015025 60 300 4.0 7.0 0.00 0.00 0.00 71 1022.3
20260509014542 61 315 3.0 11.0 0.00 0.00 0.00 70 1022.3
20260509014025 60 265 3.0 11.0 0.00 0.00 0.00 72 1022.3
20260509013528 60 312 4.0 8.0 0.00 0.00 0.00 71 1022.4
20260509013048 60 278 2.0 12.0 0.00 0.00 0.00 72 1022.4
20260509012525 60 320 4.0 12.0 0.00 0.00 0.00 73 1022.4
20260509012025 60 248 3.0 8.0 0.00 0.00 0.00 72 1022.3
20260509011540 60 215 1.0 6.0 0.00 0.00 0.00 72 1022.4
20260509011027 60 283 2.0 7.0 0.00 0.00 0.00 71 1022.3
20260509010525 60 275 2.0 12.0 0.00 0.00 0.00 71 1022.4
20260509010042 60 259 4.0 12.0 0.00 0.00 0.00 71 1022.5
20260509005524 60 229 3.0 10.0 0.00 0.00 0.00 70 1022.5
20260509005028 60 279 5.0 11.0 0.00 0.00 0.00 70 1022.5
20260509004601 61 289 4.0 11.0 0.00 0.00 0.00 70 1022.6
20260509004028 60 286 3.0 10.0 0.00 0.00 0.00 70 1022.6
20260509003525 60 136 4.0 11.0 0.00 0.00 0.00 71 1022.6
20260509003046 60 213 3.0 11.0 0.00 0.00 0.00 71 1022.5
20260509002525 60 227 4.0 11.0 0.00 0.00 0.00 70 1022.6
20260509002025 60 246 3.0 11.0 0.00 0.00 0.00 69 1022.5
20260509001542 60 233 5.0 12.0 0.00 0.00 0.00 69 1022.5
20260509001025 61 224 7.0 12.0 0.00 0.00 0.00 68 1022.5
20260509000524 61 276 4.0 9.0 0.00 0.00 0.00 69 1022.4
20260509000041 61 248 2.0 10.0 0.00 0.00 0.00 68 1022.5
20260508235528 61 294 4.0 10.0 0.00 0.00 0.00 68 1022.5
20260508235025 61 244 3.0 9.0 0.00 0.00 0.00 68 1022.4
20260508234539 61 271 4.0 12.0 0.00 0.00 0.00 66 1022.5
20260508234025 62 157 6.0 12.0 0.00 0.00 0.00 65 1022.5
20260508233525 62 267 5.0 10.0 0.00 0.00 0.00 66 1022.5
20260508233038 61 257 3.0 10.0 0.00 0.00 0.00 67 1022.5
20260508232526 61 211 4.0 10.0 0.00 0.00 0.00 69 1022.6
20260508232028 61 192 4.0 10.0 0.00 0.00 0.00 68 1022.4
20260508231541 61 246 7.0 10.0 0.00 0.00 0.00 66 1022.4
20260508231025 61 225 2.0 11.0 0.00 0.00 0.00 67 1022.4
20260508230524 61 286 5.0 12.0 0.00 0.00 0.00 65 1022.4
20260508230053 61 252 5.0 12.0 0.00 0.00 0.00 67 1022.4
20260508225525 61 222 3.0 9.0 0.00 0.00 0.00 66 1022.4
20260508225024 61 270 3.0 10.0 0.00 0.00 0.00 66 1022.4
20260508224541 60 244 5.0 10.0 0.00 0.00 0.00 67 1022.5
20260508224024 60 266 2.0 7.0 0.00 0.00 0.00 68 1022.5
20260508223521 60 249 4.0 8.0 0.00 0.00 0.00 67 1022.4
20260508223040 60 311 4.0 8.0 0.00 0.00 0.00 67 1022.5
20260508222524 60 284 3.0 11.0 0.00 0.00 0.00 69 1022.6
20260508222025 60 158 5.0 11.0 0.00 0.00 0.00 67 1022.5
20260508221540 60 157 5.0 11.0 0.00 0.00 0.00 67 1022.6
20260508221025 60 212 5.0 11.0 0.00 0.00 0.00 68 1022.6
20260508220524 60 182 5.0 12.0 0.00 0.00 0.00 69 1022.6
20260508220050 59 236 5.0 12.0 0.00 0.00 0.00 68 1022.6
20260508215525 59 168 6.0 11.0 0.00 0.00 0.00 68 1022.6
20260508215025 59 209 5.0 10.0 0.00 0.00 0.00 68 1022.6
20260508214547 60 225 4.0 12.0 0.00 0.00 0.00 67 1022.5
20260508214028 60 208 7.0 12.0 0.00 0.00 0.00 65 1022.6
20260508213524 60 215 5.0 11.0 0.00 0.00 0.00 65 1022.4
20260508213041 60 263 4.0 9.0 0.00 0.00 0.00 65 1022.5
20260508212524 60 250 3.0 9.0 0.00 0.00 0.00 65 1022.4
20260508212024 60 241 3.0 9.0 0.00 0.00 0.00 66 1022.4
20260508211543 60 207 5.0 12.0 0.00 0.00 0.00 68 1022.4
20260508211027 59 185 5.0 12.0 0.00 0.00 0.00 67 1022.4
20260508210527 59 258 5.0 12.0 0.00 0.00 0.00 67 1022.3
20260508210057 59 181 5.0 12.0 0.00 0.00 0.00 67 1022.2
20260508205527 59 229 4.0 12.0 0.00 0.00 0.00 67 1022.2
20260508205029 59 258 6.0 12.0 0.00 0.00 0.00 66 1022.2
20260508204539 59 195 5.0 11.0 0.00 0.00 0.00 66 1022.1
20260508204026 59 179 4.0 11.0 0.00 0.00 0.00 65 1022.1
20260508203526 59 217 4.0 11.0 0.00 0.00 0.00 67 1022.0
20260508203040 59 217 4.0 13.0 0.00 0.00 0.00 67 1022.0
20260508202527 59 200 6.0 13.0 0.00 0.00 0.00 66 1022.0
20260508202027 59 191 5.0 13.0 0.00 0.00 0.00 65 1022.0
20260508201544 58 219 4.0 12.0 0.00 0.00 0.00 66 1022.0